Tracking 30107 objects as of 25-Jan-2025
HD Live streaming from Space Station
objects crossing your sky now

STARLINK-5642

Track STARLINK-5642 now!
10-day predictions
STARLINK-5642 is classified as:


NORAD ID: 55430
Int'l Code: 2023-014AR
Perigee: 577.2 km
Apogee: 581.2 km
Inclination: 70.0 °
Period: 96.1 minutes
Semi major axis: 6950 km
RCS: Unknown
Launch date: January 31, 2023
Source: United States (US)
Launch site: AIR FORCE WESTERN TEST RANGE (AFWTR)
Your satellite tracking list
Your tracking list is empty




NASA's NSSDC Master Catalog

Two Line Element Set (TLE):
1 55430U 23014AR  25024.47104797  .00000292  00000-0  32287-4 0  9998
2 55430  69.9993  56.1617 0002923 268.0922  91.9902 14.98331326109779
Source of the keplerian elements: AFSPC